AMBER ENTERPRISES INDIA LTD
AMBER ENTERPRISES INDIA LTD's Shipments Over Time
Supply Ratings
Shipment Reliability and Frequency Volume of Goods
Avg. Shipments per Month: 6.08 Average TEU per month: 9.75
Active Months: 11 Average TEU per Shipment: 1.48
Shipment Frequency Std. Dev.: 5.88
Shipments By Companies
Company Name Shipments
DAIKIN KICKAPOO DISTRIBUTION CENTER 61 shipments
TREAU DBA GRADIENT EWR DISTRIBUTION 14 shipments
TREAU INC 9 shipments
CARRIER INTER AMERICA CORP 1 shipments
DAIKIN PARTS DISTRIBUTION CENTER 1 shipments
Shipments By HS Code
HS Code Shipments
841510.0 Air conditioning machines; comprising a motor driven fan and elements for changing the temperature and humidity, including those machines in which the humidity cannot be separately regulated 37 shipments
841510 Air conditioning machines; comprising a motor-driven fan and elements for changing the temperature and humidity, of a kind designed to be fixed to a window, wall, ceiling or floor, self-contained or "split-system" 23 shipments
841440.0 Air or vacuum pumps, air or other gas compressors and fans; ventilating or recycling hoods incorporating a fan whether or not fitted with filters 17 shipments
841581 Air conditioning machines; containing a motor driven fan, other than window or wall types, incorporating a refrigerating unit and a valve for reversal of the cooling/heat cycle (reversible heat pumps) 5 shipments
841430.0 Air or vacuum pumps, air or other gas compressors and fans; ventilating or recycling hoods incorporating a fan whether or not fitted with filters 1 shipments
841440 Compressors; air compressors mounted on a wheeled chassis for towing 1 shipments
841582 Air conditioning machines; containing a motor driven fan, other than window or wall types, incorporating a refrigerating unit 1 shipments
850132 Electric motors and generators; DC, of an output exceeding 750W but not exceeding 75kW 1 shipments
to show market analysis.
Similar Suppliers
to see more.
Latest Shipments
Arrival Date Bill Of Lading Consignee Weight HS Code Description
2026-03-17 EXDO62G0173318 TREAU INC 9900.0 kg 841440.0 WINDOW MOUNTED AIR CONDITIONER HTS:
2026-03-14 EXDO62G0171859 TREAU INC 9900.0 kg 841440.0 WINDOW MOUNTED AIR CONDITIONER HTS:
2026-03-14 EXDO62G0172932 TREAU INC 9900.0 kg 841440.0 WINDOW MOUNTED AIR CONDITIONER HTS:
2026-03-14 EXDO62G0172896 TREAU INC 9900.0 kg 841440.0 WINDOW MOUNTED AIR CONDITIONER HTS:
2026-03-10 EXDO62G0173604 TREAU INC 10500.0 kg 841440.0 WINDOW MOUNTED AIR CONDITIONER HTS:
2026-03-10 EXDO62G0173603 TREAU INC 10500.0 kg 841440.0 WINDOW MOUNTED AIR CONDITIONER HTS:
2026-03-08 MLCWMAAH10011850 DAIKIN KICKAPOO DISTRIBUTION CENTER 10341.0 kg 841510.0 WALL TYPE AIR CONDITIONERS
2026-03-08 MLCWMAAH10011851 DAIKIN KICKAPOO DISTRIBUTION CENTER 10341.0 kg 841510.0 WALL TYPE AIR CONDITIONERS
2026-03-08 MLCWMAAH10011852 DAIKIN KICKAPOO DISTRIBUTION CENTER 10341.0 kg 841510.0 WALL TYPE AIR CONDITIONERS
2026-03-08 MLCWMAAH10011873 DAIKIN KICKAPOO DISTRIBUTION CENTER 9936.0 kg 841510.0 WALL TYPE AIR CONDITIONERS
2026-02-09 MLCWMAAH10011819 DAIKIN KICKAPOO DISTRIBUTION CENTER 9936.0 kg 841510.0 WALL TYPE AIR CONDITIONERS
2026-02-09 MLCWMAAH10011820 DAIKIN KICKAPOO DISTRIBUTION CENTER 9936.0 kg 841510.0 WALL TYPE AIR CONDITIONERS
2026-01-15 MLCWMAAH10011762 DAIKIN KICKAPOO DISTRIBUTION CENTER 10125.0 kg 841510.0 WALL TYPE AIR CONDITIONERS
2026-01-15 MLCWMAAH10011763 DAIKIN KICKAPOO DISTRIBUTION CENTER 10125.0 kg 841510.0 WALL TYPE AIR CONDITIONERS
2026-01-12 EXDO62G0171539 TREAU INC 9900.0 kg 841440.0 WINDOW MOUNTED AIR CONDITIONER HTS:
2026-01-12 EXDO62G0171540 TREAU INC 10500.0 kg 841440.0 WINDOW MOUNTED AIR CONDITIONER HTS:
2026-01-12 EXDO62G0170713 TREAU DBA GRADIENT EWR DISTRIBUTION 9900.0 kg 841440.0 WINDOW MOUNTED AIR CONDITIONER HTS:
2026-01-12 EXDO62G0171541 TREAU INC 9900.0 kg 841440.0 WINDOW MOUNTED AIR CONDITIONER HTS:
2025-12-26 MLCWMAAH10011706 DAIKIN KICKAPOO DISTRIBUTION CENTER 10125.0 kg 841510.0 WALL TYPE AIR CONDITIONERS
2025-11-30 MLCWMAAH10011672 DAIKIN PARTS DISTRIBUTION CENTER 2507.0 kg 841510.0 WALL TYPE AIR CONDITIONER PARTS
2025-11-21 EXDO62G0169085 TREAU DBA GRADIENT EWR DISTRIBUTION 9900.0 kg 841440.0 WINDOW MOUNTED AIR CONDITIONER HTS:
2025-11-21 EXDO62G0169139 TREAU DBA GRADIENT EWR DISTRIBUTION 9900.0 kg 841440.0 WINDOW MOUNTED AIR CONDITIONER HTS:
2025-11-21 EXDO62G0169086 TREAU DBA GRADIENT EWR DISTRIBUTION 9900.0 kg 841440.0 WINDOW MOUNTED AIR CONDITIONER HTS:
2025-11-21 EXDO62G0169087 TREAU DBA GRADIENT EWR DISTRIBUTION 9900.0 kg 841440.0 WINDOW MOUNTED AIR CONDITIONER HTS:
2025-11-21 EXDO62G0169154 TREAU DBA GRADIENT EWR DISTRIBUTION 9900.0 kg 841440.0 WINDOW MOUNTED AIR CONDITIONER HTS:
2025-11-14 MLCWMAAH10011641 DAIKIN KICKAPOO DISTRIBUTION CENTER 9855.0 kg 841510.0 WALL TYPE AIR CONDITIONERS
2025-11-14 MLCWMAAH10011642 DAIKIN KICKAPOO DISTRIBUTION CENTER 9855.0 kg 841510.0 WALL TYPE AIR CONDITIONERS
2025-11-14 MLCWMAAH10011643 DAIKIN KICKAPOO DISTRIBUTION CENTER 9855.0 kg 841510.0 WALL TYPE AIR CONDITIONERS
2025-10-19 MLCWMAAH10011498 DAIKIN KICKAPOO DISTRIBUTION CENTER 9990.0 kg 841510.0 WALL TYPE AIR CONDITIONERS
2025-10-19 MLCWMAAH10011499 DAIKIN KICKAPOO DISTRIBUTION CENTER 9180.0 kg 841510.0 WALL TYPE AIR CONDITIONERS
2025-10-05 MLCWMAAH10011403 DAIKIN KICKAPOO DISTRIBUTION CENTER 10800.0 kg 841510.0 WALL TYPE AIR CONDITIONERS
2025-10-05 MLCWMAAH10011405 DAIKIN KICKAPOO DISTRIBUTION CENTER 10800.0 kg 841510.0 WALL TYPE AIR CONDITIONERS
2025-10-01 EXDO62G0167355 TREAU DBA GRADIENT EWR DISTRIBUTION 5685.0 kg 841440.0 WINDOW MOUNTED AIR CONDITIONER HTS:
2025-09-20 MLCWMAAH10011465 DAIKIN KICKAPOO DISTRIBUTION CENTER 9936.0 kg 841510.0 WALL TYPE AIR CONDITIONERS
2025-09-20 MLCWMAAH10011466 DAIKIN KICKAPOO DISTRIBUTION CENTER 9990.0 kg 841510.0 WALL TYPE AIR CONDITIONERS
2025-09-20 MLCWMAAH10011467 DAIKIN KICKAPOO DISTRIBUTION CENTER 9990.0 kg 841510.0 WALL TYPE AIR CONDITIONERS
2025-09-20 MLCWMAAH10011468 DAIKIN KICKAPOO DISTRIBUTION CENTER 9990.0 kg 841510.0 WALL TYPE AIR CONDITIONERS
2025-09-20 MLCWMAAH10011478 DAIKIN KICKAPOO DISTRIBUTION CENTER 9990.0 kg 841510.0 WALL TYPE AIR CONDITIONERS
2025-09-19 MLCWMAAH10011381 DAIKIN KICKAPOO DISTRIBUTION CENTER 9488.0 kg 841430.0 WRAC K HP R V ELEC HEAT
2025-09-19 MLCWMAAH10011420 DAIKIN KICKAPOO DISTRIBUTION CENTER 10800.0 kg 841510.0 WALL TYPE AIR CONDITIONERS
2025-09-19 MLCWMAAH10011421 DAIKIN KICKAPOO DISTRIBUTION CENTER 9990.0 kg 841510.0 WALL TYPE AIR CONDITIONERS
2025-09-19 MLCWMAAH10011422 DAIKIN KICKAPOO DISTRIBUTION CENTER 9990.0 kg 841510.0 WALL TYPE AIR CONDITIONERS
2025-09-19 MLCWMAAH10011423 DAIKIN KICKAPOO DISTRIBUTION CENTER 10800.0 kg 841510.0 WALL TYPE AIR CONDITIONERS
2025-09-16 EXDO62G0166960 TREAU DBA GRADIENT EWR DISTRIBUTION 19800.0 kg 841440.0 WINDOW MOUNTED AIR CONDITIONER HTS: WINDOW MOUNTED AIR CONDITIONER HTS:
2025-09-13 MLCWMAAH10011448 DAIKIN KICKAPOO DISTRIBUTION CENTER 10800.0 kg 841510.0 WALL TYPE AIR CONDITIONERS
2025-09-13 MLCWMAAH10011449 DAIKIN KICKAPOO DISTRIBUTION CENTER 9990.0 kg 841510.0 WALL TYPE AIR CONDITIONERS
2025-09-13 MLCWMAAH10011450 DAIKIN KICKAPOO DISTRIBUTION CENTER 9990.0 kg 841510.0 WALL TYPE AIR CONDITIONERS
2025-09-12 MLCWMAAH10011429 DAIKIN KICKAPOO DISTRIBUTION CENTER 9990.0 kg 841510.0 WALL TYPE AIR CONDITIONERS
2025-09-09 MLCWMAAH10011382 DAIKIN KICKAPOO DISTRIBUTION CENTER 10710.0 kg 841510.0 WALL TYPE AIR CONDITIONERS
2025-09-05 MLCWMAAH10011358 DAIKIN KICKAPOO DISTRIBUTION CENTER 11430.0 kg 841510.0 WALL TYPE AIR CONDITIONERS
Contact information Request
to request contact information.
Other address
SURVEY NO 395 397 398 400 431 & 4 185 EMC 3RD CROSS VIII-CHERIVI SRI CITY ANDHRA PRADESH 517646 AIN
SURVEY NO 395 397 398 400 431 & 4 185 EMC 3RD CROSS VIII-CHERIVI SRI CITY ANDHRA PRADESH 517646 AIN
P-14 STREET NO 1 SECTOR-3 M E T DADRI TOE JHAJJAR HARYANA 124103